Location: Newark
(45.5000°N, 11.4167°E)
Time: 23:56:17
(UTC+00:00)

Transit 2A Rocket - Pass Details

Date: 27 August 2019
Orbit: 594 x 910 km, 66.7° (Epoch: 17 October)

Event Time Altitude Azimuth Distance (km) Brightness Sun altitude
Rises 03:11:58 0° 315° (NW) 2,966 7.9 -13.3°
Reaches altitude 10° 03:14:45 10° 299° (WNW) 2,007 6.9 -12.8°
Maximum altitude 03:18:05 21° 251° (WSW) 1,392 5.7 -12.3°
Enters shadow 03:20:59 11° 206° (SSW) 1,843 6.5 -11.9°
Drops below altitude 10° 03:21:18 10° 203° (SSW) 1,931 - -11.8°
Sets 03:23:56 0° 186° (S) 2,817 - -11.4°
Exits shadow 03:23:59 - 186° (S) 2,840 7.6 -11.4°
